Alicante, Spain

4:28 PM CET on March 23, 2017 (GMT +0100)
Alicante

Weather History for LEAL - February, 2014

Change the Weather History Date:

Friday, February 7, 2014

  Actual Average Record
Temperature  
Mean Temperature 57 °F -  
Max Temperature 65 °F 62 °F 74 °F (2017)
Min Temperature 49 °F 44 °F 35 °F (2011)
Degree Days  
Heating Degree Days 8    
Growing Degree Days 7 (Base 50)    
Moisture  
Dew Point 36 °F    
Average Humidity 44    
Maximum Humidity 100    
Minimum Humidity 12    
Precipitation  
Precipitation 0.00 in - - ()
Sea Level Pressure  
Sea Level Pressure 30.03 in    
Wind  
Wind Speed 10 mph ()    
Max Wind Speed 28 mph    
Max Gust Speed 39 mph    
Visibility 7.2 miles    
Events      
Averages and records for this station are not official NWS values.
T = Trace of Precipitation, MM = Missing Value Source: Averaged Metar Reports

Daily Weather History Graph

Daily Weather History Graph

Search for Another Location

Airport or City:

Trip Planner

Search our weather history database for the weather conditions in past years. The results will help you decide how hot, cold, wet, or windy it might be!

Date:

Astronomy

Feb. 07, 2014 Rise Set
Actual Time 8:01 AM CET 6:31 PM CET
Civil Twilight 7:34 AM CET 6:58 PM CET
Nautical Twilight 7:02 AM CET 7:30 PM CET
Astronomical Twilight 6:32 AM CET 8:01 PM CET
Moon 12:33 PM CET (2/7) 2:02 AM CET (2/7)
Length of Visible Light 11h 24m
Length of Day
10h 29m
First Quarter, 56% of the Moon is Illuminated
Feb 7
First Quarter
Feb 15
Full
Feb 22
Last Quarter
Mar 1
New
Mar 8
First Quarter

Hourly Weather History & Observations

Time (CET) Temp. Dew Point Humidity Pressure Visibility Wind Dir Wind Speed Gust Speed Precip Events Conditions
12:00 AM 51 °F 49 °F 92% 29.85 in - West 3.5 mph - -  
12:00 AM 53.6 °F 51.8 °F 94% 29.83 in - Variable 2.3 mph - N/A   Clear
12:30 AM 53.6 °F 51.8 °F 94% 29.83 in - WNW 4.6 mph - N/A   Clear
1:00 AM 51 °F 49 °F 90% 29.87 in 7 mi WSW 8.1 mph - -   Partly Cloudy
1:00 AM 53.6 °F 51.8 °F 94% 29.86 in - WSW 6.9 mph - N/A   Clear
1:30 AM 53.6 °F 51.8 °F 94% 29.86 in - Variable 2.3 mph - N/A   Clear
2:00 AM 49 °F 48 °F 95% 29.88 in - SSW 5.8 mph - -  
2:00 AM 51.8 °F 50.0 °F 94% 29.86 in - SSW 4.6 mph - N/A   Clear
2:30 AM 51.8 °F 51.8 °F 100% 29.86 in - Variable 1.2 mph - N/A   Clear
3:00 AM 53 °F 46 °F 71% 29.89 in - WSW 6.9 mph - -  
3:00 AM 51.8 °F 51.8 °F 100% 29.86 in - Variable 2.3 mph - N/A   Clear
3:30 AM 59.0 °F 44.6 °F 59% 29.89 in - West 11.5 mph - N/A   Clear
4:00 AM 59 °F 41 °F 39% 29.90 in 7 mi WNW 18.4 mph - -  
4:00 AM 60.8 °F 42.8 °F 52% 29.89 in - West 15.0 mph - N/A   Clear
4:30 AM 59.0 °F 41.0 °F 51% 29.92 in - West 12.7 mph - N/A   Clear
5:00 AM 56 °F 38 °F 39% 29.93 in - West 15.0 mph - -  
5:00 AM 59.0 °F 39.2 °F 48% 29.92 in - West 13.8 mph - N/A   Clear
5:30 AM 57.2 °F 39.2 °F 51% 29.92 in - West 9.2 mph - N/A   Clear
6:00 AM 54 °F 37 °F 42% 29.96 in - West 8.1 mph - -  
6:00 AM 57.2 °F 39.2 °F 51% 29.95 in - West 8.1 mph - N/A   Clear
6:30 AM 55.4 °F 39.2 °F 54% 29.95 in - West 8.1 mph - N/A   Clear
7:00 AM 54 °F 37 °F 40% 29.99 in 9 mi WSW 10.4 mph - -   Clear
7:00 AM 57.2 °F 39.2 °F 51% 29.98 in - WSW 10.4 mph - N/A   Clear
7:30 AM 55.4 °F 39.2 °F 54% 29.98 in - WSW 10.4 mph - N/A   Clear
8:00 AM 54 °F 36 °F 39% 30.02 in - West 11.5 mph - -  
8:00 AM 57.2 °F 39.2 °F 51% 30.01 in 6.2 mi West 11.5 mph - N/A   Partly Cloudy
8:30 AM 55.4 °F 39.2 °F 54% 30.04 in 6.2 mi West 9.2 mph - N/A   Partly Cloudy
9:00 AM 54 °F 37 °F 41% 30.06 in - West 8.1 mph - -  
9:00 AM 57.2 °F 39.2 °F 51% 30.04 in 6.2 mi West 5.8 mph - N/A   Partly Cloudy
9:30 AM 59.0 °F 37.4 °F 45% 30.06 in 6.2 mi West 12.7 mph - N/A   Partly Cloudy
10:00 AM 57 °F 35 °F 31% 30.09 in 12 mi West 20.7 mph - -   Partly Cloudy
10:00 AM 59.0 °F 37.4 °F 45% 30.06 in 6.2 mi West 20.7 mph - N/A   Partly Cloudy
10:30 AM 59.0 °F 35.6 °F 42% 30.06 in 6.2 mi West 18.4 mph - N/A   Partly Cloudy
11:00 AM 59 °F 33 °F 26% 30.11 in - West 25.3 mph - -  
11:00 AM 60.8 °F 35.6 °F 39% 30.09 in 6.2 mi West 24.2 mph - N/A   Partly Cloudy
11:30 AM 62.6 °F 33.8 °F 34% 30.09 in 6.2 mi West 23.0 mph - N/A   Partly Cloudy
12:00 PM 61 °F 32 °F 22% 30.12 in - West 23.0 mph - -  
12:00 PM 62.6 °F 33.8 °F 34% 30.12 in 6.2 mi West 21.9 mph 33.4 mph N/A   Partly Cloudy
12:30 PM 62.6 °F 33.8 °F 34% 30.09 in 6.2 mi West 27.6 mph 39.1 mph N/A   Partly Cloudy
1:00 PM 61 °F 30 °F 20% 30.11 in 12 mi West 24.2 mph - -   Partly Cloudy
1:00 PM 62.6 °F 33.8 °F 34% 30.09 in 6.2 mi West 25.3 mph - N/A   Partly Cloudy
1:30 PM 64.4 °F 32.0 °F 30% 30.09 in 6.2 mi West 25.3 mph 36.8 mph N/A   Partly Cloudy
2:00 PM 64 °F 29 °F 16% 30.12 in - West 18.4 mph - -  
2:00 PM 64.4 °F 32.0 °F 30% 30.09 in 6.2 mi West 21.9 mph - N/A   Partly Cloudy
2:30 PM 64.4 °F 30.2 °F 28% 30.09 in 6.2 mi West 19.6 mph - N/A   Partly Cloudy
3:00 PM 64 °F 26 °F 14% 30.09 in - West 18.4 mph - -  
3:00 PM 66.2 °F 28.4 °F 24% 30.09 in 6.2 mi West 17.3 mph 28.8 mph N/A   Partly Cloudy
3:30 PM 68.0 °F 26.6 °F 21% 30.06 in 6.2 mi West 17.3 mph 31.1 mph N/A   Partly Cloudy
4:00 PM 65 °F 25 °F 12% 30.09 in - West 15.0 mph - -  
4:00 PM 66.2 °F 26.6 °F 23% 30.06 in 6.2 mi West 17.3 mph - N/A   Partly Cloudy
4:30 PM 68.0 °F 26.6 °F 21% 30.06 in 6.2 mi West 12.7 mph - N/A   Partly Cloudy
5:00 PM 65 °F 26 °F 12% 30.09 in - West 13.8 mph - -  
5:00 PM 66.2 °F 26.6 °F 23% 30.09 in 6.2 mi West 16.1 mph - N/A   Partly Cloudy
5:30 PM 66.2 °F 28.4 °F 24% 30.09 in 6.2 mi WSW 12.7 mph - N/A   Partly Cloudy
6:00 PM 63 °F 26 °F 14% 30.10 in - WSW 10.4 mph - -  
6:00 PM 66.2 °F 28.4 °F 24% 30.09 in - WSW 10.4 mph - N/A   Clear
6:30 PM 64.4 °F 28.4 °F 26% 30.09 in - SW 6.9 mph - N/A   Clear
7:00 PM 59 °F 27 °F 18% 30.12 in 12 mi SW 5.8 mph - -  
7:00 PM 60.8 °F 28.4 °F 29% 30.09 in - WSW 5.8 mph - N/A   Clear
7:30 PM 60.8 °F 30.2 °F 31% 30.12 in - WSW 8.1 mph - N/A   Clear
8:00 PM 55 °F 28 °F 24% 30.13 in - WSW 6.9 mph - -  
8:00 PM 57.2 °F 30.2 °F 36% 30.12 in - WSW 6.9 mph - N/A   Clear
8:30 PM 57.2 °F 32.0 °F 38% 30.12 in - WSW 8.1 mph - N/A   Clear
9:00 PM 56 °F 30 °F 25% 30.14 in - SW 9.2 mph - -  
9:00 PM 59.0 °F 33.8 °F 39% 30.12 in - SW 6.9 mph - N/A   Clear
9:30 PM 59.0 °F 33.8 °F 39% 30.12 in - WSW 8.1 mph - N/A   Clear
10:00 PM 55 °F 33 °F 30% 30.15 in 12 mi SSW 2.3 mph - -   Clear
10:00 PM 57.2 °F 35.6 °F 44% 30.15 in - SW 3.5 mph - N/A   Clear
10:30 PM 57.2 °F 35.6 °F 44% 30.12 in - WSW 3.5 mph - N/A   Clear
11:00 PM 56 °F 33 °F 29% 30.14 in - SW 5.8 mph - -  
11:00 PM 59.0 °F 35.6 °F 42% 30.12 in - SW 5.8 mph - N/A   Clear
11:30 PM 57.2 °F 35.6 °F 44% 30.12 in - WSW 9.2 mph - N/A   Clear